SCP
0 0 0 0 0 0 0 0 0 0 0 -0 -0 0 0 0 0 -0 -0 0 -0 -0 0 0 0 0 0 -0 0 0 0 0 0 0 0 0 0 0 0 0 -0 -0 0 0
-0 -0 0 0 0 0 0 0 0 0 0 0 0 0 0 0 0 -0 -0 0 -0 -0 -0 0 -0 -0 -0 -0 0 -0 0 0 0 -0 0 0 0 0 0 0 -0 -0 0 0
-0 -0 0 0 0 0 0 0 0 0 0 0 0 0 0 0 0 -0 0 0 0 -0 0 0 -0 -0 -0 -0 -0 -0 -0 -0 -0 -0 -0 0 0 0 0 -0 -0 -0 0 0
-0 -0 0 0 0 0 0 0 0 0 0 0 0 0 0 0 0 0 0 0 0 0 0 0 -0 -0 -0 -0 -0 -0 -0 -0 -0 -0 0 0 0 0 0 0 0 -0 -0 -0
0 0 -0 0 0 0 0 1 0 0 0 0 0 0 0 0 0 0 0 0 0 0 0 0 -0 0 -0 -0 -0 -0 -0 -0 -0 0 -0 0 0 0 0 0 0 0 -0 -0
0 -0 0 0 0 0 0 0 0 0 0 0 0 0 0 0 0 0 0 0 0 0 0 0 -0 -0 -0 -0 -0 -0 -0 -0 -0 -0 -0 0 0 0 0 0 0 -0 -0 -0
-0 0 0 0 0 0 1 0 0 0 0 0 0 0 0 0 0 0 0 0 0 0 0 -0 -0 -0 -0 -0 -0 -0 -0 -0 -0 -0 -0 0 0 0 0 0 0 -0 -0 -0
0 0 0 -0 0 0 0 0 0 0 0 0 0 0 0 0 0 0 0 0 0 0 0 0 -0 -0 -0 -0 -0 -0 -0 -0 -0 -0 -0 0 0 0 0 0 0 0 0 -0
0 0 0 -0 0 0 0 0 0 0 0 0 0 0 0 0 0 0 0 0 0 0 0 0 0 -0 -0 -0 -0 -0 -0 -0 -0 -0 -0 -0 0 0 0 0 0 0 0 0
-0 -0 0 -0 -0 -0 0 0 0 0 0 0 0 0 0 0 0 0 0 0 0 0 0 0 0 0 0 -0 -0 -0 -0 -0 -0 -0 -0 0 0 0 0 0 0 0 0 0
-0 -0 -0 -0 0 -0 0 0 0 0 0 0 0 0 0 0 0 0 0 0 0 0 0 0 0 0 0 0 -0 -0 -0 -0 -0 -0 -0 0 0 0 0 0 0 0 0 0
-0 0 0 0 -0 -0 -0 0 0 0 0 0 0 0 0 0 0 0 0 0 0 0 0 0 0 0 0 0 -0 -0 -0 -0 -0 0 0 0 0 0 -0 -0 0 0 0 0
-0 -0 -0 -0 0 -0 -0 0 0 0 0 0 0 0 0 0 0 0 0 0 0 0 0 0 0 0 0 0 0 -0 -0 -0 0 0 0 0 0 0 0 -0 -0 -0 0 0
-0 0 -0 -0 -0 0 -0 0 0 0 0 0 0 0 0 0 0 0 0 0 0 0 0 0 0 0 0 0 0 0 -0 -0 0 0 0 0 0 -0 -0 0 0 -0 -0 0
-0 -0 -0 0 -0 -0 -0 -0 0 0 0 0 0 0 0 0 0 0 0 0 1 0 0 0 0 0 0 0 0 0 0 0 0 0 0 0 0 0 0 -0 -0 -0 -0 -0
-0 -0 -0 -0 -0 0 0 0 -0 0 0 0 0 0 0 0 0 0 0 0 0 0 0 0 0 0 0 0 0 0 0 0 0 0 0 0 0 0 0 0 0 0 -0 -0
-0 -0 -0 0 0 0 0 0 0 -0 0 0 0 0 0 0 0 0 0 0 0 0 0 0 0 0 0 0 0 0 0 0 0 0 0 0 0 0 0 0 0 0 0 -0
0 -0 -0 -0 0 0 0 0 0 0 0 0 0 0 0 0 0 0 0 0 0 0 0 0 0 0 0 0 0 0 0 0 0 0 0 0 0 0 0 0 0 0 0 0
-0 -0 -0 -0 0 0 0 0 0 0 0 0 0 0 0 0 0 0 0 0 0 0 0 0 0 0 0 0 0 0 0 0 0 0 0 0 0 0 0 0 0 0 0 0
0 -0 0 -0 -0 0 0 0 0 0 0 0 0 0 0 0 0 0 0 0 0 0 0 0 0 0 0 0 0 0 0 0 0 0 0 0 0 0 0 0 0 0 0 0
-0 0 -0 0 -0 0 0 0 0 0 0 0 0 0 0 0 0 0 0 0 0 0 0 0 0 0 0 0 0 0 0 0 0 0 0 0 0 0 0 0 0 0 0 0
-0 -0 -0 -0 -0 0 0 0 0 0 0 0 0 0 0 0 0 0 0 0 0 0 0 0 0 0 0 0 0 0 0 0 0 0 0 0 0 0 0 0 0 0 0 0
0 -0 -0 -0 -0 -0 0 0 0 0 0 0 0 0 0 0 0 0 0 0 0 0 0 0 0 0 0 0 0 0 0 0 0 0 0 0 0 0 0 0 0 0 0 0
0 0 -0 -0 -0 -0 0 0 0 0 0 0 0 0 0 0 0 0 0 0 0 0 0 0 0 0 0 0 0 0 0 0 0 0 0 0 0 0 0 0 0 0 0 0
0 0 0 0 -0 -0 0 -0 0 0 0 0 0 0 0 0 0 0 0 0 0 0 0 0 0 0 0 0 0 0 0 0 0 0 0 0 0 0 0 0 0 0 0 0
0 0 0 0 -0 -0 0 0 -0 0 0 0 0 0 0 0 0 0 0 0 0 0 0 0 0 0 0 0 0 0 0 0 0 0 0 0 0 0 0 0 0 0 0 0
0 0 0 0 0 -0 -0 0 0 0 0 0 0 0 0 0 0 0 0 0 0 0 0 0 0 0 0 0 0 0 0 0 0 0 0 0 0 0 0 0 0 0 0 0
Wind_Speed_500mb
29 31 32 34 37 23 17 12 5 12 19 37 37 40 42 37 57 59 63 70 77 81 75 71 67 58 51 43 37 37 36 28 20 10 6 14 13 12 14 23 26 22 20 17
28 38 39 41 37 27 28 22 20 30 33 34 42 43 18 55 68 66 69 71 74 79 75 72 67 59 56 48 43 39 40 30 22 14 14 11 11 15 15 20 28 26 26 18
17 18 8 14 24 27 14 10 7 9 14 22 11 27 19 11 71 71 73 76 82 83 77 73 65 56 58 53 48 42 42 32 22 17 14 9 7 17 18 19 27 27 24 18
13 15 8 4 10 4 8 15 5 17 34 23 2 6 37 20 36 59 69 69 77 80 75 66 61 54 53 54 52 43 41 34 24 21 21 15 7 15 19 22 26 26 22 20
7 8 5 9 10 12 11 4 25 32 22 29 15 38 31 39 5 51 83 81 78 76 72 67 63 57 56 57 56 47 42 36 32 28 21 21 11 14 22 25 27 25 23 20
5 9 6 5 22 41 25 9 33 40 35 7 18 18 8 31 12 41 72 79 78 74 72 66 65 63 59 62 61 47 45 40 34 27 24 25 13 17 24 24 24 26 25 21
19 8 3 24 36 51 13 10 49 51 46 37 14 15 30 21 22 19 67 80 78 80 76 72 71 69 63 61 59 40 46 41 41 35 29 26 17 20 25 24 26 27 21 23
5 4 2 47 43 17 13 28 52 55 36 24 44 49 25 34 44 38 45 72 81 81 78 78 74 71 65 61 48 41 49 45 43 38 36 26 15 22 22 24 27 27 23 28
6 6 2 5 16 24 27 30 32 42 39 47 48 38 33 49 51 48 42 49 70 79 79 79 75 70 64 51 50 49 50 50 40 40 37 26 17 22 22 29 33 28 29 31
6 12 12 12 27 32 38 43 51 46 30 45 46 51 45 51 54 54 55 34 35 59 71 76 75 70 52 51 53 54 54 55 47 43 40 28 17 20 16 28 36 37 35 31
9 11 27 26 47 45 44 46 49 62 53 55 55 56 35 48 60 59 54 43 28 22 52 68 73 73 59 54 56 58 57 58 53 48 41 31 22 24 15 16 22 27 33 27
6 25 13 33 50 46 45 43 52 62 62 47 53 52 37 47 55 57 47 45 37 18 29 64 72 73 66 59 61 62 62 65 59 54 47 35 29 31 28 18 15 14 14 14
11 29 32 41 35 39 39 41 49 54 48 47 49 49 40 41 51 53 52 32 35 13 10 44 74 71 70 66 67 66 63 69 64 57 52 45 36 35 37 31 24 19 16 12
27 34 26 33 42 37 39 38 41 43 31 30 41 39 33 34 46 55 53 35 33 18 14 24 61 74 70 72 71 67 67 64 65 62 56 47 42 37 40 34 33 30 28 24
18 28 26 32 35 36 29 32 38 33 31 30 38 18 24 31 43 49 47 43 28 26 15 24 45 71 68 76 75 73 72 69 66 64 59 51 44 43 43 41 41 35 34 33
17 31 38 38 30 28 33 26 32 34 32 31 35 23 21 21 31 43 48 44 37 38 33 8 48 60 72 79 80 74 72 69 70 67 62 56 52 50 51 50 48 45 42 40
19 35 40 37 36 36 40 29 27 26 27 25 27 24 20 21 27 43 43 32 29 32 40 36 5 55 69 77 82 76 72 71 70 68 66 61 56 60 56 55 57 57 53 49
14 27 30 34 34 42 39 30 26 25 27 28 24 22 22 15 27 35 28 32 33 34 43 40 30 14 47 64 80 84 80 72 73 74 69 67 63 61 65 62 60 59 55 54
29 34 26 37 35 35 26 28 30 25 19 20 19 22 17 23 29 23 25 35 45 42 50 38 28 27 15 41 68 80 86 86 79 78 74 69 65 65 67 67 67 63 60 58
18 23 29 40 33 30 31 34 36 36 31 17 13 22 28 38 38 39 42 54 50 41 36 36 25 25 19 9 24 60 67 80 84 80 80 77 71 69 69 70 70 70 70 65
20 19 31 38 37 30 34 37 40 41 39 35 32 37 39 36 33 28 34 42 42 33 31 32 38 41 28 16 15 19 23 46 72 85 86 79 73 73 74 71 69 72 74 75
17 17 28 35 40 36 34 34 37 33 31 34 33 29 28 32 27 30 35 38 35 33 35 38 39 36 36 25 13 9 11 14 34 57 70 78 79 74 77 77 75 71 72 76
15 21 24 33 34 39 27 33 35 32 40 38 32 32 33 28 26 25 21 29 30 30 32 36 35 28 32 38 39 22 14 13 16 13 39 66 73 77 79 83 84 77 74 78
17 16 14 25 31 39 40 33 35 39 36 30 32 33 25 25 21 23 20 19 18 19 23 27 29 25 21 29 29 32 32 32 29 20 19 16 11 44 69 65 66 68 82 85
6 13 9 17 33 34 37 32 38 46 49 49 43 47 50 49 41 31 24 22 21 14 16 16 19 26 29 31 29 28 28 28 28 25 24 21 18 9 3 3 18 35 50 59
19 17 13 15 25 32 32 37 43 41 45 52 59 62 62 61 59 57 52 46 35 25 25 26 24 24 29 35 35 33 30 28 26 26 26 24 19 16 17 12 11 9 7 20
26 23 18 17 17 24 29 30 35 39 41 44 49 54 58 60 62 65 64 64 62 55 47 41 35 31 28 31 34 37 35 35 33 32 31 30 31 29 26 23 23 26 26 21
Wind_Direction_500mb
255 265 266 262 265 256 235 234 238 299 297 289 289 281 267 207 175 158 157 158 163 167 169 170 169 170 169 167 167 171 170 173 172 172 165 175 179 168 169 179 176 165 156 159
278 272 257 252 252 236 232 235 248 250 273 275 277 294 272 177 168 164 162 161 165 169 171 173 170 172 173 174 175 173 175 177 184 179 150 132 170 177 172 175 176 175 171 174
273 341 110 229 239 232 231 195 208 243 238 302 309 336 40 206 164 162 161 164 168 174 175 175 173 172 176 179 178 180 185 182 189 169 171 157 134 183 185 179 178 181 178 191
278 280 219 187 59 19 302 236 5 279 259 264 173 358 65 69 177 160 160 165 171 176 178 177 175 174 174 181 183 185 194 189 188 175 183 194 191 189 185 172 183 177 189 203
260 299 258 195 15 343 335 176 21 337 302 175 161 58 15 37 94 169 171 176 179 181 180 178 177 176 176 184 185 187 191 185 188 182 192 196 206 193 186 181 187 188 192 204
307 274 294 145 319 301 282 215 355 337 324 29 351 75 288 8 58 184 180 181 181 184 184 180 180 179 180 186 187 190 190 185 190 192 208 197 200 188 187 195 193 190 189 199
243 261 277 338 310 282 176 333 316 325 340 357 61 84 327 15 35 134 183 187 185 185 185 185 182 183 184 185 190 192 190 196 192 201 207 196 194 184 191 196 192 185 190 175
294 266 331 357 358 54 345 334 331 322 327 345 36 58 9 50 55 59 186 188 188 187 188 187 185 186 186 188 189 186 192 195 195 203 196 194 203 180 188 191 179 184 185 173
352 331 113 68 19 12 351 322 313 318 317 21 30 27 30 47 54 59 72 173 184 188 189 188 188 190 187 187 184 182 192 194 200 202 197 199 204 189 183 187 185 187 187 181
231 172 297 36 22 359 333 323 332 319 334 23 17 17 37 38 48 52 59 86 167 187 188 189 192 195 195 181 184 188 195 196 199 202 195 196 197 195 191 191 193 189 191 182
248 6 353 351 345 337 339 340 318 334 357 10 12 23 31 33 37 44 56 66 119 133 200 199 200 201 195 184 186 192 199 198 199 199 201 195 197 197 176 176 179 181 190 194
320 330 319 296 327 348 344 338 320 342 341 1 4 8 35 38 34 33 36 50 65 164 225 214 208 206 198 193 189 194 201 199 201 199 199 203 205 195 186 175 152 174 188 195
268 312 309 309 320 341 335 336 324 330 328 346 2 8 28 33 33 32 29 34 38 88 164 213 215 210 205 201 195 199 205 203 204 204 203 203 207 201 193 191 199 199 191 166
311 297 315 330 326 338 333 331 317 323 339 348 348 10 19 28 36 34 25 19 8 47 157 203 217 215 209 206 202 203 207 212 211 209 210 210 210 205 201 197 203 204 204 200
1 11 353 345 349 352 332 338 321 331 354 7 9 30 16 21 25 25 25 18 30 47 59 196 218 217 213 209 207 207 208 213 215 217 218 219 215 208 207 211 217 212 203 202
357 3 8 8 353 345 342 321 325 332 346 4 9 21 17 14 18 26 22 18 23 31 44 89 208 221 216 212 210 211 214 215 218 219 219 218 218 215 214 217 220 222 219 212
352 3 351 349 351 346 337 321 313 322 334 342 358 12 13 9 15 22 19 26 33 42 48 51 146 208 215 221 217 213 213 214 220 221 220 220 223 222 221 222 226 229 232 230
359 15 2 356 356 0 355 6 359 336 331 329 357 29 11 14 2 12 51 62 63 55 45 44 45 200 205 208 219 223 220 215 216 221 221 218 220 223 224 228 229 230 232 234
17 357 6 4 359 3 9 22 27 23 349 356 36 24 353 346 341 56 82 65 59 53 38 26 32 51 141 206 217 218 223 227 219 221 224 223 224 223 227 230 233 236 236 237
31 30 22 12 10 16 30 45 41 49 51 48 47 48 69 65 90 89 80 66 60 56 42 36 33 34 42 62 214 215 221 228 229 227 228 229 228 229 229 233 236 238 241 241
44 31 28 31 29 37 45 51 49 58 61 72 75 74 73 77 84 82 76 67 59 56 43 42 45 44 48 57 123 168 215 230 231 231 229 231 233 235 237 236 239 242 244 247
45 52 45 47 45 47 51 53 47 54 50 57 57 60 64 63 63 61 51 46 44 42 39 40 48 50 48 66 79 113 121 85 221 229 237 239 240 240 241 241 240 241 245 248
52 52 51 49 53 47 59 61 53 41 41 37 39 41 39 37 26 19 1 21 24 32 27 35 34 46 64 65 66 81 108 102 89 95 225 236 242 247 248 247 247 246 248 250
66 54 60 53 49 52 61 65 62 62 58 46 45 47 42 51 43 32 4 4 5 13 17 22 28 30 48 76 72 58 59 66 72 91 87 102 201 240 245 251 257 261 258 257
341 107 83 57 47 57 58 68 72 72 72 71 66 64 60 57 53 41 25 23 18 11 26 31 31 39 51 60 60 55 50 43 40 39 49 64 76 100 133 245 255 257 252 251
145 138 122 77 59 50 56 64 72 70 69 65 62 59 59 58 57 54 51 50 48 40 38 40 36 38 40 40 42 43 40 36 31 25 17 21 21 17 25 15 359 359 335 262
142 143 135 119 80 50 45 52 60 62 64 64 63 59 56 56 56 57 55 54 54 52 49 45 41 37 34 29 26 26 26 24 22 19 16 9 3 357 348 341 335 325 323 328
Wind_Speed_850mb
29 31 32 34 37 23 17 12 5 12 19 37 37 40 42 37 57 59 63 70 77 81 75 71 67 58 51 43 37 37 36 28 20 10 6 14 13 12 14 23 26 22 20 17
28 38 39 41 37 27 28 22 20 30 33 34 42 43 18 55 68 66 69 71 74 79 75 72 67 59 56 48 43 39 40 30 22 14 14 11 11 15 15 20 28 26 26 18
17 18 8 14 24 27 14 10 7 9 14 22 11 27 19 11 71 71 73 76 82 83 77 73 65 56 58 53 48 42 42 32 22 17 14 9 7 17 18 19 27 27 24 18
13 15 8 4 10 4 8 15 5 17 34 23 2 6 37 20 36 59 69 69 77 80 75 66 61 54 53 54 52 43 41 34 24 21 21 15 7 15 19 22 26 26 22 20
7 8 5 9 10 12 11 4 25 32 22 29 15 38 31 39 5 51 83 81 78 76 72 67 63 57 56 57 56 47 42 36 32 28 21 21 11 14 22 25 27 25 23 20
5 9 6 5 22 41 25 9 33 40 35 7 18 18 8 31 12 41 72 79 78 74 72 66 65 63 59 62 61 47 45 40 34 27 24 25 13 17 24 24 24 26 25 21
19 8 3 24 36 51 13 10 49 51 46 37 14 15 30 21 22 19 67 80 78 80 76 72 71 69 63 61 59 40 46 41 41 35 29 26 17 20 25 24 26 27 21 23
5 4 2 47 43 17 13 28 52 55 36 24 44 49 25 34 44 38 45 72 81 81 78 78 74 71 65 61 48 41 49 45 43 38 36 26 15 22 22 24 27 27 23 28
6 6 2 5 16 24 27 30 32 42 39 47 48 38 33 49 51 48 42 49 70 79 79 79 75 70 64 51 50 49 50 50 40 40 37 26 17 22 22 29 33 28 29 31
6 12 12 12 27 32 38 43 51 46 30 45 46 51 45 51 54 54 55 34 35 59 71 76 75 70 52 51 53 54 54 55 47 43 40 28 17 20 16 28 36 37 35 31
9 11 27 26 47 45 44 46 49 62 53 55 55 56 35 48 60 59 54 43 28 22 52 68 73 73 59 54 56 58 57 58 53 48 41 31 22 24 15 16 22 27 33 27
6 25 13 33 50 46 45 43 52 62 62 47 53 52 37 47 55 57 47 45 37 18 29 64 72 73 66 59 61 62 62 65 59 54 47 35 29 31 28 18 15 14 14 14
11 29 32 41 35 39 39 41 49 54 48 47 49 49 40 41 51 53 52 32 35 13 10 44 74 71 70 66 67 66 63 69 64 57 52 45 36 35 37 31 24 19 16 12
27 34 26 33 42 37 39 38 41 43 31 30 41 39 33 34 46 55 53 35 33 18 14 24 61 74 70 72 71 67 67 64 65 62 56 47 42 37 40 34 33 30 28 24
18 28 26 32 35 36 29 32 38 33 31 30 38 18 24 31 43 49 47 43 28 26 15 24 45 71 68 76 75 73 72 69 66 64 59 51 44 43 43 41 41 35 34 33
17 31 38 38 30 28 33 26 32 34 32 31 35 23 21 21 31 43 48 44 37 38 33 8 48 60 72 79 80 74 72 69 70 67 62 56 52 50 51 50 48 45 42 40
19 35 40 37 36 36 40 29 27 26 27 25 27 24 20 21 27 43 43 32 29 32 40 36 5 55 69 77 82 76 72 71 70 68 66 61 56 60 56 55 57 57 53 49
14 27 30 34 34 42 39 30 26 25 27 28 24 22 22 15 27 35 28 32 33 34 43 40 30 14 47 64 80 84 80 72 73 74 69 67 63 61 65 62 60 59 55 54
29 34 26 37 35 35 26 28 30 25 19 20 19 22 17 23 29 23 25 35 45 42 50 38 28 27 15 41 68 80 86 86 79 78 74 69 65 65 67 67 67 63 60 58
18 23 29 40 33 30 31 34 36 36 31 17 13 22 28 38 38 39 42 54 50 41 36 36 25 25 19 9 24 60 67 80 84 80 80 77 71 69 69 70 70 70 70 65
20 19 31 38 37 30 34 37 40 41 39 35 32 37 39 36 33 28 34 42 42 33 31 32 38 41 28 16 15 19 23 46 72 85 86 79 73 73 74 71 69 72 74 75
17 17 28 35 40 36 34 34 37 33 31 34 33 29 28 32 27 30 35 38 35 33 35 38 39 36 36 25 13 9 11 14 34 57 70 78 79 74 77 77 75 71 72 76
15 21 24 33 34 39 27 33 35 32 40 38 32 32 33 28 26 25 21 29 30 30 32 36 35 28 32 38 39 22 14 13 16 13 39 66 73 77 79 83 84 77 74 78
17 16 14 25 31 39 40 33 35 39 36 30 32 33 25 25 21 23 20 19 18 19 23 27 29 25 21 29 29 32 32 32 29 20 19 16 11 44 69 65 66 68 82 85
6 13 9 17 33 34 37 32 38 46 49 49 43 47 50 49 41 31 24 22 21 14 16 16 19 26 29 31 29 28 28 28 28 25 24 21 18 9 3 3 18 35 50 59
19 17 13 15 25 32 32 37 43 41 45 52 59 62 62 61 59 57 52 46 35 25 25 26 24 24 29 35 35 33 30 28 26 26 26 24 19 16 17 12 11 9 7 20
26 23 18 17 17 24 29 30 35 39 41 44 49 54 58 60 62 65 64 64 62 55 47 41 35 31 28 31 34 37 35 35 33 32 31 30 31 29 26 23 23 26 26 21
Wind_Direction_850mb
255 265 266 262 265 256 235 234 238 299 297 289 289 281 267 207 175 158 157 158 163 167 169 170 169 170 169 167 167 171 170 173 172 172 165 175 179 168 169 179 176 165 156 159
278 272 257 252 252 236 232 235 248 250 273 275 277 294 272 177 168 164 162 161 165 169 171 173 170 172 173 174 175 173 175 177 184 179 150 132 170 177 172 175 176 175 171 174
273 341 110 229 239 232 231 195 208 243 238 302 309 336 40 206 164 162 161 164 168 174 175 175 173 172 176 179 178 180 185 182 189 169 171 157 134 183 185 179 178 181 178 191
278 280 219 187 59 19 302 236 5 279 259 264 173 358 65 69 177 160 160 165 171 176 178 177 175 174 174 181 183 185 194 189 188 175 183 194 191 189 185 172 183 177 189 203
260 299 258 195 15 343 335 176 21 337 302 175 161 58 15 37 94 169 171 176 179 181 180 178 177 176 176 184 185 187 191 185 188 182 192 196 206 193 186 181 187 188 192 204
307 274 294 145 319 301 282 215 355 337 324 29 351 75 288 8 58 184 180 181 181 184 184 180 180 179 180 186 187 190 190 185 190 192 208 197 200 188 187 195 193 190 189 199
243 261 277 338 310 282 176 333 316 325 340 357 61 84 327 15 35 134 183 187 185 185 185 185 182 183 184 185 190 192 190 196 192 201 207 196 194 184 191 196 192 185 190 175
294 266 331 357 358 54 345 334 331 322 327 345 36 58 9 50 55 59 186 188 188 187 188 187 185 186 186 188 189 186 192 195 195 203 196 194 203 180 188 191 179 184 185 173
352 331 113 68 19 12 351 322 313 318 317 21 30 27 30 47 54 59 72 173 184 188 189 188 188 190 187 187 184 182 192 194 200 202 197 199 204 189 183 187 185 187 187 181
231 172 297 36 22 359 333 323 332 319 334 23 17 17 37 38 48 52 59 86 167 187 188 189 192 195 195 181 184 188 195 196 199 202 195 196 197 195 191 191 193 189 191 182
248 6 353 351 345 337 339 340 318 334 357 10 12 23 31 33 37 44 56 66 119 133 200 199 200 201 195 184 186 192 199 198 199 199 201 195 197 197 176 176 179 181 190 194
320 330 319 296 327 348 344 338 320 342 341 1 4 8 35 38 34 33 36 50 65 164 225 214 208 206 198 193 189 194 201 199 201 199 199 203 205 195 186 175 152 174 188 195
268 312 309 309 320 341 335 336 324 330 328 346 2 8 28 33 33 32 29 34 38 88 164 213 215 210 205 201 195 199 205 203 204 204 203 203 207 201 193 191 199 199 191 166
311 297 315 330 326 338 333 331 317 323 339 348 348 10 19 28 36 34 25 19 8 47 157 203 217 215 209 206 202 203 207 212 211 209 210 210 210 205 201 197 203 204 204 200
1 11 353 345 349 352 332 338 321 331 354 7 9 30 16 21 25 25 25 18 30 47 59 196 218 217 213 209 207 207 208 213 215 217 218 219 215 208 207 211 217 212 203 202
357 3 8 8 353 345 342 321 325 332 346 4 9 21 17 14 18 26 22 18 23 31 44 89 208 221 216 212 210 211 214 215 218 219 219 218 218 215 214 217 220 222 219 212
352 3 351 349 351 346 337 321 313 322 334 342 358 12 13 9 15 22 19 26 33 42 48 51 146 208 215 221 217 213 213 214 220 221 220 220 223 222 221 222 226 229 232 230
359 15 2 356 356 0 355 6 359 336 331 329 357 29 11 14 2 12 51 62 63 55 45 44 45 200 205 208 219 223 220 215 216 221 221 218 220 223 224 228 229 230 232 234
17 357 6 4 359 3 9 22 27 23 349 356 36 24 353 346 341 56 82 65 59 53 38 26 32 51 141 206 217 218 223 227 219 221 224 223 224 223 227 230 233 236 236 237
31 30 22 12 10 16 30 45 41 49 51 48 47 48 69 65 90 89 80 66 60 56 42 36 33 34 42 62 214 215 221 228 229 227 228 229 228 229 229 233 236 238 241 241
44 31 28 31 29 37 45 51 49 58 61 72 75 74 73 77 84 82 76 67 59 56 43 42 45 44 48 57 123 168 215 230 231 231 229 231 233 235 237 236 239 242 244 247
45 52 45 47 45 47 51 53 47 54 50 57 57 60 64 63 63 61 51 46 44 42 39 40 48 50 48 66 79 113 121 85 221 229 237 239 240 240 241 241 240 241 245 248
52 52 51 49 53 47 59 61 53 41 41 37 39 41 39 37 26 19 1 21 24 32 27 35 34 46 64 65 66 81 108 102 89 95 225 236 242 247 248 247 247 246 248 250
66 54 60 53 49 52 61 65 62 62 58 46 45 47 42 51 43 32 4 4 5 13 17 22 28 30 48 76 72 58 59 66 72 91 87 102 201 240 245 251 257 261 258 257
341 107 83 57 47 57 58 68 72 72 72 71 66 64 60 57 53 41 25 23 18 11 26 31 31 39 51 60 60 55 50 43 40 39 49 64 76 100 133 245 255 257 252 251
145 138 122 77 59 50 56 64 72 70 69 65 62 59 59 58 57 54 51 50 48 40 38 40 36 38 40 40 42 43 40 36 31 25 17 21 21 17 25 15 359 359 335 262
142 143 135 119 80 50 45 52 60 62 64 64 63 59 56 56 56 57 55 54 54 52 49 45 41 37 34 29 26 26 26 24 22 19 16 9 3 357 348 341 335 325 323 328